Weather History for Al Hoceima, Morocco

Change the Weather History Date:

Friday, March 22, 2013

  Actual Average Record
Temperature  
Mean Temperature 60 °F -  
Max Temperature 71 °F 64 °F 77 °F (2004)
Min Temperature 50 °F 51 °F 42 °F (2012)
Degree Days  
Heating Degree Days 4    
Growing Degree Days 10 (Base 50)    
Moisture  
Dew Point 52 °F    
Average Humidity 70    
Maximum Humidity 88    
Minimum Humidity 58    
Precipitation  
Precipitation 0.00 in - - ()
Sea Level Pressure  
Sea Level Pressure 29.90 in    
Wind  
Wind Speed 6 mph ()    
Max Wind Speed 18 mph    
Max Gust Speed -    
Visibility 6.1 miles    
Events      
Averages and records for this station are not official NWS values.
T = Trace of Precipitation, MM = Missing Value Source: Averaged Metar Reports

Daily Weather History Graph

Daily Weather History Graph

Search for Another Location

Airport:

Trip Planner

Search our weather history database for the weather conditions in past years. The results will help you decide how hot, cold, wet, or windy it might be!

Date:

Astronomy

Mar. 22, 2013 Rise Set
Actual Time 6:16 AM WET 6:28 PM WET
Civil Twilight 5:50 AM WET 6:54 PM WET
Nautical Twilight 5:21 AM WET 7:23 PM WET
Astronomical Twilight 4:51 AM WET 7:53 PM WET
Moon 1:51 PM WET (3/22) 2:57 AM WET (3/22)
Length of Visible Light 13h 03m
Length of Day
12h 12m
Waxing Gibbous, 75% of the Moon is Illuminated
Mar 22
Waxing Gibbous
Mar 27
Full
Apr 3
Last Quarter
Apr 10
New
Apr 18
First Quarter

Hourly Weather History & Observations

Time (WET) Temp. Dew Point Humidity Pressure Visibility Wind Dir Wind Speed Gust Speed Precip Events Conditions
6:00 AM 51 °F 45 °F 74% 29.89 in 6 mi SW 4.6 mph - -   Clear
6:00 AM 50.0 °F 44.6 °F 82% 29.89 in - SW 4.6 mph - N/A   Clear
7:00 AM 51.8 °F 46.4 °F 82% 29.92 in - West 4.6 mph - N/A   Clear
8:00 AM 55.4 °F 51.8 °F 88% 29.95 in - SSE 4.6 mph - N/A   Clear
9:00 AM 62 °F 54 °F 69% 29.96 in 6 mi SSE 4.6 mph - -   Partly Cloudy
9:00 AM 62.6 °F 53.6 °F 72% 29.95 in 6.2 mi SSE 4.6 mph - N/A   Scattered Clouds
10:00 AM 68.0 °F 55.4 °F 64% 29.92 in 6.2 mi SE 4.6 mph - N/A   Partly Cloudy
11:00 AM 69.8 °F 57.2 °F 64% 29.92 in - SSE 4.6 mph - N/A   Clear
12:00 PM 65 °F 54 °F 59% 29.89 in 6 mi North 9.2 mph - -   Scattered Clouds
12:00 PM 66.2 °F 53.6 °F 64% 29.89 in 6.2 mi North 9.2 mph - N/A   Partly Cloudy
1:00 PM 64.4 °F 55.4 °F 73% 29.86 in 6.2 mi North 11.5 mph - N/A   Partly Cloudy
2:00 PM 68.0 °F 55.4 °F 64% 29.86 in 6.2 mi NE 6.9 mph - N/A   Partly Cloudy
3:00 PM 67 °F 56 °F 61% 29.88 in 6 mi NNW 18.4 mph - -   Partly Cloudy
3:00 PM 66.2 °F 57.2 °F 73% 29.86 in 6.2 mi NNW 18.4 mph - N/A   Partly Cloudy
4:00 PM 62.6 °F 53.6 °F 72% 29.89 in 6.2 mi NNW 13.8 mph - N/A   Scattered Clouds
5:00 PM 62.6 °F 53.6 °F 72% 29.89 in 6.2 mi NW 11.5 mph - N/A   Scattered Clouds
6:00 PM 63 °F 52 °F 58% 29.88 in 6 mi NW 11.5 mph - -   Partly Cloudy
6:00 PM 62.6 °F 51.8 °F 68% 29.86 in 6.2 mi NW 11.5 mph - N/A   Scattered Clouds
7:00 PM 60.8 °F 51.8 °F 72% 29.89 in 6.2 mi NE 2.3 mph - N/A   Scattered Clouds
8:00 PM 60.8 °F 50.0 °F 68% 29.89 in 6.2 mi ESE 4.6 mph - N/A   Scattered Clouds
9:00 PM 59 °F 50 °F 63% 29.91 in 6 mi SSW 2.3 mph - -   Partly Cloudy
9:00 PM 59.0 °F 50.0 °F 72% 29.89 in 6.2 mi SSW 2.3 mph - N/A   Scattered Clouds